Temperature
19 18 18 18 18 18 18 18 18 18 18 18 18 18 18 18 18 18 18 18 18 18 18 18 18 18 18 18 18 18 18 18 18 18 18 18 18 18 18 18 17 17 17
19 18 18 18 18 18 18 18 18 18 18 18 18 18 18 18 18 18 18 18 18 18 18 18 18 18 18 18 18 18 18 18 18 18 18 18 18 18 17 17 17 17 17
18 18 18 18 18 18 18 18 18 18 18 18 18 18 18 18 18 18 18 18 18 18 18 18 18 18 18 18 18 18 18 18 18 18 18 17 17 18 17 17 17 17 17
19 18 18 18 18 18 18 18 18 18 18 18 18 18 18 18 18 18 18 18 18 18 18 18 18 18 18 18 18 18 18 18 18 18 17 17 17 17 17 17 17 17 17
18 18 18 18 18 18 18 18 18 18 18 18 18 18 18 18 18 18 18 18 18 18 18 18 18 18 18 18 18 18 18 18 18 17 17 17 17 17 17 17 17 17 17
19 18 18 18 18 18 18 18 18 18 18 18 18 18 18 18 18 18 18 18 18 18 18 18 18 18 18 18 18 18 18 18 17 17 17 17 17 18 17 17 17 17 17
19 18 18 18 18 18 18 18 18 18 18 18 18 18 18 18 18 18 18 18 18 18 18 18 17 18 18 18 18 18 18 17 17 17 17 17 17 17 17 17 17 17 17
19 19 18 18 18 18 18 18 18 18 18 18 18 18 18 18 18 18 18 18 18 18 18 18 17 17 17 18 18 18 18 17 17 17 17 17 17 17 17 17 17 17 17
19 19 18 18 18 18 18 18 18 18 18 18 18 18 18 18 18 18 18 18 18 17 17 17 17 17 17 17 18 18 18 17 17 17 17 17 17 17 17 17 17 17 17
19 19 18 18 18 18 18 18 18 18 18 18 18 18 18 18 18 18 17 17 17 17 17 17 17 17 17 18 18 18 18 18 18 17 17 17 18 17 17 17 17 17 17
18 18 19 19 18 18 18 18 18 18 18 18 18 18 18 17 17 17 17 17 18 17 17 17 17 17 17 17 18 18 18 18 18 18 17 18 18 17 17 17 17 17 17
19 19 19 19 18 18 18 18 18 18 18 17 17 17 17 17 17 17 18 18 18 18 17 17 17 17 17 17 17 18 17 18 18 18 17 18 18 17 17 17 17 17 17
20 19 19 19 18 18 18 18 18 18 18 17 17 17 17 17 17 17 17 17 17 17 17 17 17 17 17 17 17 17 17 18 18 18 17 18 18 17 17 17 17 17 17
20 19 19 18 18 18 18 18 18 18 18 18 17 17 17 17 17 17 17 17 17 17 17 17 17 17 17 17 17 17 17 18 18 18 18 18 18 17 17 17 17 17 17
20 19 19 18 18 18 18 18 18 18 18 18 18 17 17 18 18 18 17 17 17 17 17 17 17 17 17 17 17 17 17 17 18 18 18 18 18 18 17 17 17 17 17
20 19 19 18 18 19 18 18 18 18 18 18 18 18 17 18 18 18 17 17 17 17 17 17 17 17 17 17 17 17 17 17 17 17 17 18 18 18 18 17 17 17 17
20 19 19 19 19 19 18 18 18 18 18 18 18 18 18 18 18 18 18 17 17 17 17 17 17 17 17 18 17 17 17 17 17 17 17 18 18 18 18 18 18 17 17
20 19 19 19 19 19 19 18 18 18 18 18 18 18 18 18 18 18 18 18 17 18 17 17 18 18 18 18 18 18 18 18 17 17 18 18 18 18 18 18 18 17 17
20 20 19 19 19 19 19 19 18 18 18 18 18 18 18 18 18 18 18 18 18 18 18 18 18 18 18 18 18 18 18 18 18 18 18 18 18 17 17 18 18 18 18
20 20 20 19 19 19 19 19 19 18 18 18 18 18 18 18 18 18 18 18 18 18 18 18 17 18 18 18 18 18 18 18 18 18 18 18 18 17 17 17 17 17 18
21 20 20 20 19 19 19 19 19 19 19 18 18 18 18 18 18 18 18 18 18 18 18 18 18 18 18 18 18 18 18 18 18 18 18 18 18 18 17 17 17 17 17
21 21 20 20 20 20 19 19 19 19 19 19 19 18 18 18 18 18 18 18 18 18 18 18 18 18 18 18 18 18 19 19 18 19 18 18 18 18 18 18 17 17 17
21 21 21 21 20 20 20 19 19 19 19 19 19 19 18 18 18 18 18 18 18 18 18 18 18 18 18 18 18 18 19 19 19 19 18 18 18 18 18 18 17 17 17
22 22 21 21 21 20 20 20 19 19 19 19 19 19 18 18 18 18 18 18 18 18 18 18 18 18 18 18 18 18 18 18 19 19 18 18 18 17 17 18 18 17 17
23 22 21 21 21 21 20 20 20 19 19 19 19 19 19 18 18 18 18 18 18 18 18 18 18 18 18 18 18 18 17 18 18 18 19 18 18 18 17 17 17 17 17
23 22 21 21 21 21 21 20 20 20 19 19 19 19 19 19 19 18 18 18 18 18 18 18 18 18 18 18 18 18 18 18 18 18 18 18 18 18 17 17 17 17 17
Wind_Speed
4 6 9 6 6 8 10 11 13 14 13 14 15 16 17 17 17 18 19 18 19 19 19 19 19 19 18 17 17 17 16 15 15 15 15 15 15 14 14 14 13 15 16
5 7 9 7 7 8 10 11 12 13 13 14 15 15 17 16 17 19 18 18 18 18 18 18 18 18 17 17 16 15 15 14 14 15 15 14 14 13 12 10 8 14 14
6 8 9 9 8 9 10 11 12 13 13 14 14 15 16 16 17 17 17 17 17 17 17 18 18 17 16 16 15 15 14 14 14 14 13 13 13 12 12 11 12 14 13
7 8 10 10 9 9 10 10 11 12 13 14 14 14 14 15 15 16 16 16 16 17 17 17 17 16 15 15 15 14 14 13 12 11 10 11 12 13 11 12 12 12 12
8 9 11 9 9 9 10 10 12 13 13 13 14 14 15 15 15 15 15 15 15 15 16 16 16 15 15 14 14 13 12 12 10 8 9 9 10 13 11 11 11 11 11
8 9 11 9 9 10 11 11 13 13 13 13 14 14 15 15 14 14 15 15 14 14 15 15 15 15 14 13 13 12 10 10 10 8 8 8 10 11 10 11 11 11 10
8 9 11 10 9 10 11 12 12 13 13 13 13 14 14 14 14 14 14 14 14 14 14 14 13 13 12 11 11 10 8 7 6 8 7 8 9 11 10 10 11 11 11
8 9 11 11 10 10 10 11 12 12 13 13 13 13 13 13 12 12 13 13 13 14 14 13 12 12 11 10 9 8 7 6 6 7 7 8 10 10 9 10 10 10 10
8 8 8 10 11 11 10 10 11 11 11 12 12 11 12 12 12 11 11 12 13 13 13 12 12 11 10 9 8 7 6 5 4 6 6 7 11 10 9 10 10 10 9
6 7 7 8 9 9 11 10 10 10 11 11 11 10 11 12 12 12 12 13 13 12 12 12 11 10 9 8 8 7 7 7 5 7 6 9 11 10 9 10 10 9 9
7 6 6 7 8 8 9 10 10 10 10 10 10 10 8 8 10 11 12 13 12 12 11 11 10 9 8 9 8 8 7 5 5 4 5 11 10 9 9 9 9 10 9
8 7 6 6 7 7 7 8 7 8 8 6 7 8 7 7 7 10 14 12 11 11 11 10 9 9 8 8 9 9 5 4 4 4 7 11 9 8 9 9 9 10 10
8 7 6 6 5 6 6 6 5 5 6 6 7 6 6 6 7 8 8 10 10 11 9 10 9 7 4 3 4 4 4 4 3 4 8 10 9 8 8 9 9 10 11
8 7 6 6 5 4 4 5 5 5 5 5 6 5 6 4 4 5 5 6 7 6 6 6 4 5 4 4 3 3 3 3 3 3 7 10 9 9 9 9 10 10 11
7 7 7 6 5 5 4 3 4 4 5 6 5 5 4 4 4 5 4 4 5 6 6 5 5 4 3 4 3 3 3 2 3 3 5 9 9 9 9 10 10 11 11
7 8 7 7 6 6 5 4 4 4 4 5 5 5 4 3 4 4 4 4 4 5 4 4 4 4 4 3 3 3 3 3 3 4 4 8 10 10 10 10 11 12 13
8 8 8 8 7 6 6 5 5 5 5 4 5 5 5 4 4 4 4 4 4 5 5 5 4 4 4 4 4 3 3 3 3 4 4 5 7 11 11 11 12 13 13
8 8 8 7 8 7 6 4 4 4 5 4 5 5 5 4 5 4 3 4 4 5 5 4 4 4 4 4 3 3 3 3 4 5 5 6 6 6 11 13 13 13 13
9 9 9 8 8 7 6 5 4 4 4 4 4 5 6 6 6 5 3 3 4 4 4 4 4 4 4 4 4 4 3 4 4 5 4 5 6 6 6 10 13 13 13
10 9 9 9 8 8 7 5 4 5 5 5 4 5 6 6 6 5 4 4 4 3 3 3 3 3 3 4 4 3 4 4 4 4 5 5 5 7 7 7 9 12 14
11 11 10 10 9 8 7 6 6 6 5 5 5 6 6 6 7 6 4 4 4 4 4 4 4 4 4 3 3 3 4 5 5 4 4 4 5 6 6 6 7 6 9
13 12 12 12 11 10 8 6 5 4 4 5 4 5 7 7 7 7 5 5 5 4 4 4 4 3 3 3 3 3 3 4 4 4 4 4 4 4 5 7 7 7 7
14 14 12 12 12 11 9 7 6 5 5 5 6 5 6 7 7 6 6 5 4 5 4 5 5 5 4 4 4 3 3 2 1 3 3 4 4 3 4 5 6 7 7
15 14 13 13 12 12 11 9 9 7 6 6 5 5 6 7 7 7 7 6 5 5 4 6 6 4 5 4 4 4 4 3 3 2 3 3 3 4 4 4 4 5 6
15 14 13 13 12 12 12 11 10 9 7 5 5 5 6 6 7 7 7 6 6 5 5 5 4 5 5 5 4 4 4 4 5 4 3 2 3 3 3 4 3 3 4
14 14 13 13 13 13 13 12 12 10 8 6 6 6 6 6 6 7 7 6 6 5 5 6 6 6 5 5 5 5 5 4 4 4 4 4 3 2 2 2 3 3 3
Wind_Direction
64 73 79 75 95 96 101 102 104 106 110 114 115 122 124 121 123 123 119 121 125 125 125 124 124 122 121 121 119 120 120 121 121 119 119 120 120 122 124 129 135 119 118
77 82 90 83 94 101 102 104 108 109 110 115 117 120 123 121 122 125 122 125 125 125 125 125 124 124 123 121 121 123 124 126 125 124 124 122 120 121 124 126 110 114 124
90 92 94 85 93 98 103 107 110 112 113 116 118 120 122 121 120 124 125 126 127 127 127 126 125 125 123 122 124 124 124 126 128 132 141 132 125 123 124 121 113 120 125
97 95 91 93 97 103 106 109 115 118 117 116 120 122 123 122 123 125 126 127 128 128 126 125 125 126 126 126 126 125 124 125 133 152 148 130 128 124 128 127 128 130 130
101 99 97 101 105 107 108 108 115 120 119 118 121 124 125 127 128 127 127 128 130 128 125 127 129 130 130 129 128 128 129 133 148 170 120 122 121 128 133 134 136 136 136
109 109 104 106 107 108 109 108 111 116 117 120 124 127 128 128 128 130 132 133 132 130 127 130 132 132 132 131 130 132 137 148 175 136 125 129 126 134 138 142 142 141 139
111 110 109 107 110 111 112 114 115 118 119 121 123 126 127 129 131 133 134 133 134 133 133 134 132 132 134 135 136 139 144 172 171 131 133 129 123 137 142 143 145 144 144
113 111 113 117 115 115 114 116 116 119 120 122 124 125 127 129 130 130 133 134 138 140 139 138 136 136 137 138 141 147 160 194 154 137 137 128 126 144 146 147 147 147 150
115 113 118 125 125 125 119 114 115 116 119 123 124 127 132 133 133 133 133 135 134 135 139 141 140 140 140 141 145 152 165 203 170 142 144 133 139 152 154 154 153 152 151
116 117 124 122 121 129 128 123 118 117 116 118 120 125 134 137 139 143 145 136 135 137 137 137 137 136 138 142 146 153 167 197 174 156 148 135 146 159 162 162 162 162 159
129 129 128 123 129 128 125 128 132 128 124 130 128 130 143 139 136 145 131 133 137 137 134 132 132 133 143 149 151 163 186 192 166 157 139 128 154 168 170 171 172 171 170
145 142 133 130 132 132 126 129 133 130 125 126 122 129 130 123 127 126 126 132 135 137 140 138 141 157 182 158 157 181 185 182 181 160 135 141 163 175 177 180 183 179 178
146 145 147 142 136 133 130 133 130 128 130 130 122 124 121 129 132 133 139 143 148 153 152 150 169 168 164 140 156 171 172 190 193 170 139 152 176 185 187 189 191 190 189
150 153 154 146 146 142 130 129 140 139 138 134 132 139 134 134 135 135 143 145 152 150 148 155 154 146 148 156 167 172 181 201 192 172 145 160 185 195 196 197 199 199 200
159 160 158 156 154 153 150 160 143 142 146 140 140 138 144 147 140 136 139 148 156 147 155 163 163 150 163 172 180 182 196 190 210 200 156 169 191 203 205 206 207 207 208
172 168 164 166 163 166 166 165 155 155 154 148 149 144 154 155 145 146 150 157 160 163 161 171 165 169 183 179 192 196 221 212 205 220 205 181 193 206 212 211 212 216 218
177 175 173 173 169 173 174 173 164 168 162 158 151 153 163 166 159 167 162 170 168 164 170 184 176 182 190 193 199 206 220 232 222 227 228 213 198 200 208 213 216 221 221
180 178 183 183 172 176 178 180 174 176 164 164 166 164 169 167 174 187 187 178 176 182 186 185 197 199 200 208 206 219 216 217 229 229 229 222 219 212 203 208 216 221 222
185 183 183 186 179 180 178 182 184 176 183 181 175 173 171 177 181 193 196 179 192 193 199 210 192 209 208 213 214 217 229 224 219 226 233 230 220 225 223 196 206 217 222
188 188 187 186 183 181 180 183 187 187 188 189 182 179 182 187 191 200 192 192 203 198 206 217 218 224 226 227 240 226 233 224 218 220 231 226 218 222 228 223 211 212 214
191 191 191 192 183 184 184 189 189 191 192 189 192 183 190 197 194 206 208 191 212 207 215 214 216 214 222 220 236 235 227 221 218 217 227 233 223 224 224 224 230 226 205
195 195 193 194 190 191 187 192 196 195 200 195 198 186 198 198 202 197 203 212 209 205 209 216 214 228 227 211 233 244 234 207 211 213 214 221 234 226 221 219 222 224 237
199 197 197 195 191 195 189 189 187 191 208 202 198 195 200 202 205 214 201 216 213 222 205 213 215 221 235 229 232 250 265 258 215 192 215 220 223 232 239 231 227 225 227
201 197 196 194 193 191 192 197 198 202 207 205 202 196 195 201 206 207 208 211 218 222 212 220 214 224 234 239 226 235 261 294 278 248 218 211 219 229 240 248 240 225 229
199 195 192 191 192 191 195 198 205 212 212 204 200 191 203 200 207 210 210 210 214 223 221 232 228 230 232 241 239 232 232 234 245 261 264 257 230 226 226 235 244 243 234
194 193 190 187 190 192 196 202 208 210 209 202 200 198 202 199 199 204 209 210 213 216 215 221 223 222 234 243 247 238 234 236 238 244 257 259 257 238 225 234 240 242 245
Height
1505 1503 1501 1500 1499 1500 1500 1501 1501 1502 1504 1505 1506 1508 1510 1512 1514 1517 1518 1521 1523 1526 1528 1530 1533 1535 1537 1540 1542 1543 1545 1547 1549 1550 1551 1552 1553 1554 1555 1557 1558 1559 1560
1507 1505 1503 1502 1501 1502 1503 1503 1504 1505 1506 1508 1509 1510 1513 1515 1517 1519 1520 1523 1526 1528 1530 1533 1535 1538 1540 1542 1544 1545 1547 1549 1550 1551 1552 1554 1555 1556 1557 1558 1560 1561 1561
1508 1507 1506 1504 1504 1504 1505 1505 1506 1507 1509 1510 1512 1513 1515 1517 1519 1521 1523 1526 1528 1530 1533 1535 1538 1540 1542 1544 1546 1547 1549 1551 1552 1553 1554 1556 1557 1557 1558 1560 1560 1562 1563
1510 1510 1508 1507 1507 1507 1507 1508 1508 1509 1511 1513 1514 1516 1518 1520 1522 1524 1526 1529 1531 1533 1535 1537 1540 1542 1544 1546 1547 1549 1551 1552 1554 1555 1558 1559 1559 1559 1560 1561 1562 1563 1564
1512 1512 1510 1509 1509 1510 1510 1509 1508 1511 1513 1515 1517 1519 1521 1522 1524 1526 1529 1531 1533 1535 1537 1539 1541 1544 1546 1548 1549 1551 1552 1554 1555 1557 1559 1560 1560 1560 1561 1562 1563 1564 1565
1514 1514 1512 1512 1512 1512 1512 1512 1512 1513 1515 1517 1519 1521 1523 1525 1527 1529 1531 1533 1535 1537 1539 1541 1543 1545 1547 1549 1551 1552 1554 1555 1557 1560 1560 1561 1561 1561 1562 1563 1564 1565 1566
1516 1516 1515 1514 1514 1514 1515 1516 1516 1517 1518 1520 1522 1524 1526 1528 1529 1531 1533 1535 1537 1539 1541 1543 1545 1547 1549 1551 1552 1554 1555 1557 1560 1560 1561 1562 1562 1562 1563 1564 1565 1566 1567
1517 1518 1517 1516 1516 1517 1518 1518 1519 1520 1521 1523 1525 1526 1528 1530 1531 1533 1534 1536 1538 1540 1542 1544 1546 1548 1550 1552 1553 1555 1557 1558 1560 1561 1562 1563 1563 1563 1564 1565 1566 1567 1568
1519 1520 1520 1520 1519 1519 1520 1521 1522 1523 1524 1526 1527 1529 1530 1532 1533 1535 1536 1538 1540 1541 1544 1545 1548 1550 1551 1553 1554 1556 1557 1558 1561 1562 1563 1564 1563 1564 1565 1566 1567 1568 1568
1520 1521 1521 1522 1523 1523 1524 1524 1524 1525 1526 1528 1529 1530 1532 1533 1535 1536 1538 1539 1541 1543 1545 1547 1549 1551 1552 1554 1555 1557 1558 1559 1562 1563 1564 1564 1564 1564 1565 1566 1567 1568 1569
1521 1522 1524 1524 1525 1526 1527 1526 1527 1527 1528 1530 1531 1532 1534 1536 1537 1538 1539 1540 1542 1544 1546 1548 1550 1552 1554 1555 1556 1558 1559 1561 1563 1564 1564 1563 1564 1565 1565 1566 1567 1568 1569
1522 1523 1524 1525 1526 1528 1528 1528 1529 1530 1531 1532 1533 1534 1536 1537 1538 1539 1540 1542 1544 1545 1547 1549 1551 1553 1555 1557 1557 1558 1560 1562 1563 1564 1564 1563 1564 1565 1566 1567 1568 1568 1569
1523 1524 1525 1526 1527 1529 1529 1530 1531 1532 1532 1534 1534 1535 1537 1538 1540 1541 1542 1544 1545 1547 1549 1551 1553 1555 1557 1558 1559 1560 1561 1562 1563 1564 1564 1563 1564 1565 1565 1566 1567 1568 1569
1524 1525 1526 1527 1527 1528 1530 1531 1532 1533 1534 1535 1535 1536 1538 1539 1541 1542 1543 1545 1547 1548 1550 1552 1553 1555 1556 1557 1558 1560 1561 1562 1563 1564 1563 1563 1563 1564 1565 1566 1567 1567 1568
1524 1525 1526 1527 1527 1528 1529 1532 1533 1534 1535 1536 1536 1537 1539 1540 1541 1543 1544 1545 1548 1549 1551 1552 1554 1554 1556 1557 1558 1559 1560 1561 1562 1563 1563 1562 1562 1563 1564 1565 1566 1566 1567
1524 1525 1526 1527 1528 1529 1530 1531 1533 1535 1535 1537 1538 1538 1539 1541 1542 1543 1545 1546 1548 1550 1551 1552 1554 1555 1556 1557 1558 1559 1559 1560 1560 1561 1562 1561 1561 1562 1562 1563 1564 1565 1566
1524 1525 1526 1527 1528 1529 1530 1532 1534 1535 1536 1537 1538 1538 1539 1541 1542 1544 1545 1546 1548 1549 1550 1552 1553 1554 1555 1556 1557 1558 1558 1558 1559 1559 1560 1561 1560 1560 1561 1561 1562 1563 1564
1524 1525 1526 1528 1528 1529 1530 1531 1534 1535 1536 1537 1538 1539 1540 1541 1542 1543 1545 1547 1548 1549 1550 1551 1552 1553 1555 1556 1556 1557 1557 1557 1557 1557 1558 1559 1559 1560 1559 1560 1560 1561 1562
1522 1524 1525 1527 1528 1529 1530 1531 1533 1534 1535 1536 1537 1539 1539 1541 1542 1543 1545 1546 1547 1548 1549 1551 1552 1553 1554 1554 1555 1555 1555 1556 1556 1556 1556 1557 1557 1557 1558 1558 1558 1559 1560
1520 1522 1524 1525 1527 1528 1529 1530 1532 1533 1534 1535 1537 1538 1539 1540 1542 1543 1544 1544 1546 1547 1548 1549 1550 1551 1552 1552 1554 1554 1554 1554 1554 1554 1554 1555 1555 1555 1556 1556 1556 1557 1557
1518 1520 1522 1524 1525 1527 1528 1530 1531 1532 1533 1535 1536 1537 1538 1540 1541 1542 1544 1544 1545 1546 1547 1548 1549 1549 1550 1551 1552 1552 1552 1552 1552 1552 1553 1553 1554 1554 1554 1554 1554 1555 1555
1516 1517 1519 1521 1523 1525 1527 1528 1530 1531 1533 1534 1535 1535 1537 1539 1540 1541 1541 1543 1544 1544 1545 1546 1547 1548 1549 1549 1550 1551 1551 1551 1550 1551 1551 1551 1551 1552 1551 1551 1552 1552 1552
1513 1514 1517 1519 1521 1523 1525 1527 1529 1529 1531 1533 1533 1534 1536 1537 1538 1539 1540 1542 1542 1543 1544 1544 1545 1546 1547 1548 1548 1549 1549 1548 1548 1549 1548 1548 1548 1549 1549 1549 1549 1549 1549
1509 1512 1514 1516 1518 1520 1522 1525 1527 1528 1529 1530 1532 1533 1534 1535 1537 1538 1539 1540 1540 1541 1542 1543 1544 1544 1545 1546 1546 1546 1547 1547 1547 1547 1547 1546 1546 1546 1546 1547 1547 1546 1546
1506 1509 1511 1513 1515 1517 1519 1522 1524 1526 1527 1529 1530 1531 1532 1534 1535 1536 1537 1538 1538 1539 1540 1541 1541 1542 1542 1543 1544 1544 1544 1544 1545 1545 1544 1544 1544 1544 1544 1544 1544 1544 1544
1502 1505 1508 1509 1512 1514 1516 1519 1521 1523 1525 1527 1528 1529 1531 1532 1533 1534 1535 1535 1536 1537 1537 1538 1539 1539 1539 1540 1541 1542 1542 1542 1542 1542 1542 1541 1541 1541 1541 1541 1541 1541 1541